Flock 4g-18

operational
NORAD ID: 62680 Int'l Des: 2025-009 Owner: PLAN Country: US Constellation: planet
LEOCIRCULARRETROGRADESSO

About Flock 4g-18

Description loading...

Live Position

Loading 3D Globe...

Upcoming Passes

Altitude History

Altitude vs Time

uPlot chart will show altitude changes over time

Two-Line Element Set

1 62680U 25009BZ 25314.47300226 .00015444 00000-0 64505-3 0 9998
2 62680 97.4214 32.8126 0006019 34.6572 325.5056 15.23708304103166
Epoch: Nov 10, 2025 • Age: 27 hours

Current Status

Altitude 503.9 km
Velocity 7.62 km/s
Sub-Earth Point 71.61°N, 103.04°E
Launch Date Jan 14, 2025
Age 0.8 years
Type earth observation

Technical Details

Classification Payload
Mass 5.70 kg
Dry Mass 5.70 kg
Total Mass 5.70 kg
Length 0.30 m
Diameter 0.10 m
Span 0.30 m
Shape Box+2 pan
Manufacturer PLAN
Bus Type Cubesat 3U
Phase Status In Orbit
Owner/State PLAN/US

Large Constellations

Loading constellations...